Grand Forks, ND

11:50 AM CDT on March 30, 2017 (GMT -0500)
Grand Forks International

Weather History for KGFK - April, 2014

Change the Weather History Date:

Monday, April 21, 2014

  Actual Average Record
Temperature  
Mean Temperature 45 °F 45 °F  
Max Temperature 57 °F 58 °F 100 °F (1980)
Min Temperature 33 °F 32 °F 13 °F (1945)
Degree Days  
Heating Degree Days 20 20  
Month to date heating degree days 624 534  
Since 1 July heating degree days 9974 8919  
Cooling Degree Days 0 0  
Month to date cooling degree days 0 0  
Year to date cooling degree days 0 0  
Moisture  
Dew Point 35 °F    
Average Humidity 64    
Maximum Humidity 85    
Minimum Humidity 43    
Precipitation  
Precipitation 0.00 in 0.03 in 1.16 in (1974)
Month to date precipitation 0.21 0.61  
Year to date precipitation 2.21 2.64  
Snow  
Snow 0.00 in 0.00 in 2.90 in (1992)
Month to date snowfall 1.1 2.1  
Since 1 July snowfall 60.3 46.5  
Snow Depth 0.00 in    
Sea Level Pressure  
Sea Level Pressure 30.07 in    
Wind  
Wind Speed 13 mph (NW)    
Max Wind Speed 31 mph    
Max Gust Speed 41 mph    
Visibility 10 miles    
Events      
T = Trace of Precipitation, MM = Missing Value Source: NWS Daily Summary

Daily Weather History Graph

Daily Weather History Graph

Search for Another Location

Airport or City:

Trip Planner

Search our weather history database for the weather conditions in past years. The results will help you decide how hot, cold, wet, or windy it might be!

Date:

Astronomy

Apr. 21, 2014 Rise Set
Actual Time 6:28 AM CDT 8:27 PM CDT
Civil Twilight 5:54 AM CDT 9:01 PM CDT
Nautical Twilight 5:13 AM CDT 9:42 PM CDT
Astronomical Twilight 4:28 AM CDT 10:28 PM CDT
Moon 2:05 AM CDT (4/21) 11:50 AM CDT (4/21)
Length of Visible Light 15h 06m
Length of Day
13h 59m
Waning Gibbous, 57% of the Moon is Illuminated
Apr 21
Waning Gibbous
Apr 22
Last Quarter
Apr 29
New
May 6
First Quarter
May 14
Full

Hourly Weather History & Observations

Time (CDT) Temp. Windchill Dew Point Humidity Pressure Visibility Wind Dir Wind Speed Gust Speed Precip Events Conditions
12:53 AM 50.0 °F - 37.9 °F 63% 29.91 in 10.0 mi West 6.9 mph - 0.00 in   Clear
1:53 AM 48.0 °F - 37.0 °F 66% 29.92 in 10.0 mi WSW 10.4 mph - N/A   Clear
2:53 AM 46.0 °F 41.4 °F 36.0 °F 68% 29.91 in 10.0 mi SW 9.2 mph - N/A   Clear
3:53 AM 46.9 °F - 35.1 °F 63% 29.92 in 10.0 mi West 13.8 mph - N/A   Clear
4:53 AM 45.0 °F 37.9 °F 36.0 °F 71% 29.94 in 10.0 mi WNW 16.1 mph - N/A   Clear
5:36 AM 42.8 °F 34.5 °F 37.4 °F 81% 29.97 in 10.0 mi NNW 18.4 mph 23.0 mph N/A   Mostly Cloudy
5:53 AM 39.9 °F 31.4 °F 35.1 °F 83% 30.00 in 10.0 mi NNW 16.1 mph 23.0 mph N/A   Mostly Cloudy
6:03 AM 39.2 °F 32.0 °F 35.6 °F 87% 30.00 in 10.0 mi NNW 11.5 mph - N/A   Mostly Cloudy
6:13 AM 37.4 °F 30.8 °F 35.6 °F 93% 30.00 in 10.0 mi NNW 9.2 mph - N/A   Mostly Cloudy
6:53 AM 37.9 °F 28.9 °F 34.0 °F 86% 30.04 in 10.0 mi NNW 16.1 mph - N/A   Mostly Cloudy
7:53 AM 39.0 °F 31.0 °F 34.0 °F 82% 30.08 in 10.0 mi NW 13.8 mph - N/A   Overcast
8:53 AM 39.9 °F 29.7 °F 33.1 °F 77% 30.11 in 10.0 mi NNW 23.0 mph 29.9 mph N/A   Mostly Cloudy
9:02 AM 39.2 °F 29.3 °F 33.8 °F 81% 30.09 in 10.0 mi NNW 20.7 mph 27.6 mph N/A   Mostly Cloudy
9:53 AM 43.0 °F 33.1 °F 34.0 °F 71% 30.10 in 10.0 mi NW 26.5 mph 33.4 mph N/A   Scattered Clouds
10:53 AM 45.0 °F 35.4 °F 30.9 °F 58% 30.12 in 10.0 mi NNW 28.8 mph 36.8 mph N/A   Scattered Clouds
11:53 AM 48.0 °F - 33.1 °F 56% 30.15 in 10.0 mi NNW 21.9 mph 28.8 mph N/A   Mostly Cloudy
12:53 PM 48.9 °F - 32.0 °F 52% 30.16 in 10.0 mi North 18.4 mph 28.8 mph N/A   Mostly Cloudy
1:53 PM 51.1 °F - 33.1 °F 50% 30.15 in 10.0 mi NNW 15.0 mph 23.0 mph N/A   Mostly Cloudy
2:53 PM 53.1 °F - 34.0 °F 48% 30.15 in 10.0 mi NNW 15.0 mph 23.0 mph N/A   Scattered Clouds
3:53 PM 55.0 °F - 33.1 °F 43% 30.15 in 10.0 mi NNW 15.0 mph 24.2 mph N/A   Scattered Clouds
4:53 PM 55.9 °F - 34.0 °F 44% 30.14 in 10.0 mi NNW 12.7 mph 20.7 mph N/A   Scattered Clouds
5:53 PM 55.0 °F - 34.0 °F 45% 30.14 in 10.0 mi North 11.5 mph - N/A   Mostly Cloudy
6:53 PM 53.1 °F - 35.1 °F 50% 30.14 in 10.0 mi North 8.1 mph - N/A   Mostly Cloudy
7:53 PM 51.1 °F - 36.0 °F 56% 30.14 in 10.0 mi NE 6.9 mph - N/A   Mostly Cloudy
8:53 PM 44.1 °F 41.5 °F 35.1 °F 71% 30.15 in 10.0 mi NE 4.6 mph - N/A   Scattered Clouds
9:53 PM 39.0 °F 36.8 °F 35.1 °F 86% 30.15 in 10.0 mi SSW 3.5 mph - N/A   Partly Cloudy
10:53 PM 37.9 °F - 34.0 °F 86% 30.16 in 10.0 mi Calm Calm - N/A   Clear
11:53 PM 37.0 °F - 34.0 °F 89% 30.15 in 10.0 mi Calm Calm - N/A   Clear